Date,TemperatureHighF,TemperatureAvgF,TemperatureLowF,DewpointHighF,DewpointAvgF,DewpointLowF,HumidityHigh,HumidityAvg,HumidityLow,PressureMaxIn,PressureMinIn,WindSpeedMaxMPH,WindSpeedAvgMPH,GustSpeedMaxMPH,PrecipitationSumIn
2013-2-1,79.0,76.4,72.0,-99.9,-99.9,-99.9,0,0,100,30.10,30.00,22,10,30,0.00
2013-2-2,81.0,77.4,71.0,-99.9,-99.9,-99.9,0,0,100,30.07,29.98,15,9,19,0.00
2013-2-3,81.0,77.0,73.0,-99.9,-99.9,-99.9,0,0,100,30.04,29.92,19,9,25,0.00
2013-2-4,80.0,76.2,70.0,-99.9,-99.9,-99.9,0,0,100,30.04,29.93,15,1,22,0.00
2013-2-5,80.0,75.6,71.0,-99.9,-99.9,-99.9,0,0,100,30.07,29.97,18,8,23,0.00
2013-2-6,80.0,76.3,72.0,-99.9,-99.9,-99.9,0,0,100,30.05,29.96,21,9,25,0.00
2013-2-7,80.0,77.2,73.0,-99.9,-99.9,-99.9,0,0,100,30.02,29.92,21,4,25,0.00
2013-2-8,80.0,77.2,72.0,-99.9,-99.9,-99.9,0,0,100,30.04,29.93,22,11,27,0.00
2013-2-9,80.0,77.2,73.0,-99.9,-99.9,-99.9,0,0,100,30.05,29.96,17,11,22,0.00
2013-2-10,80.0,77.0,72.0,-99.9,-99.9,-99.9,0,0,100,30.10,30.00,21,9,26,0.00
2013-2-11,78.0,77.1,74.0,-99.9,-99.9,-99.9,0,0,100,30.13,30.04,24,17,32,0.00
2013-2-12,79.0,77.2,75.0,-99.9,-99.9,-99.9,0,0,100,30.12,30.05,19,14,25,0.00
2013-2-13,80.0,76.3,71.0,-99.9,-99.9,-99.9,0,0,100,30.11,30.00,16,1,22,0.00
2013-2-14,80.0,77.6,75.0,-99.9,-99.9,-99.9,0,0,100,30.11,30.01,15,10,22,0.00
2013-2-15,83.0,78.2,75.0,-99.9,-99.9,-99.9,0,0,100,30.10,29.98,18,10,26,0.00
2013-2-16,83.0,78.8,74.0,-99.9,-99.9,-99.9,0,0,100,30.05,29.95,19,10,25,0.00
2013-2-17,82.0,77.9,74.0,-99.9,-99.9,-99.9,0,0,100,30.08,29.98,23,8,27,0.00
2013-2-18,81.0,77.5,73.0,-99.9,-99.9,-99.9,0,0,100,30.13,30.03,18,8,22,0.00
2013-2-19,80.0,77.3,74.0,-99.9,-99.9,-99.9,0,0,100,30.13,30.02,21,12,30,0.00
2013-2-20,81.0,77.2,74.0,-99.9,-99.9,-99.9,0,0,100,30.08,29.95,21,12,29,0.00
2013-2-21,82.0,78.4,74.0,-99.9,-99.9,-99.9,0,0,100,30.06,29.94,20,8,25,0.00
2013-2-22,80.0,77.3,73.0,-99.9,-99.9,-99.9,0,0,100,30.09,29.99,16,9,21,0.00
2013-2-23,80.0,78.0,77.0,-99.9,-99.9,-99.9,0,0,100,30.07,29.99,21,11,24,0.00
2013-2-24,80.0,77.8,73.0,-99.9,-99.9,-99.9,0,0,100,30.06,29.94,17,9,21,0.00
2013-2-25,79.0,77.1,74.0,-99.9,-99.9,-99.9,0,0,100,30.02,29.91,21,11,26,0.00
2013-2-26,80.0,77.8,76.0,-99.9,-99.9,-99.9,0,0,100,30.06,29.96,22,14,30,0.00
2013-2-27,85.0,78.9,74.0,-99.9,-99.9,-99.9,0,0,100,30.06,29.94,19,10,27,0.00
2013-2-28,80.0,77.5,74.0,-99.9,-99.9,-99.9,0,0,100,30.04,29.91,22,11,26,0.00